Theta_e
323 321 323 323 321 322 324 322 325 328 326 325 322 323 323 323 325 325 328 327 328 330 328 328 328 329 331 331 332 335 335 337 339 340 342 337 331 330 324 319 322 319 324 336 338 338 338 338 337 336 335 333 331 326 320 319 318 316 314 313 315 318 321 318 317 318 314 312 313 314 321 326 328 330 329 327 323 322 323 322 322 318 315 314 314 313 312 310 308 309 311 313 314 314 314 314 314
326 324 323 322 322 323 323 322 329 333 326 321 323 324 321 321 323 329 333 330 331 331 330 330 329 330 332 331 331 333 333 334 332 334 336 331 330 327 322 319 319 319 329 337 337 337 338 337 337 336 334 331 327 320 315 314 313 312 311 313 317 321 322 320 317 316 314 313 317 319 325 330 330 331 331 330 325 320 319 319 317 315 313 313 312 312 311 309 308 310 312 313 313 313 313 313 313
329 326 322 323 323 321 324 323 327 332 325 323 329 327 322 324 328 334 331 328 332 331 332 331 331 332 331 332 332 334 334 333 334 333 332 329 327 323 321 319 318 325 334 338 337 337 338 337 336 335 333 327 321 314 312 311 310 310 311 314 318 323 323 322 320 320 318 317 323 326 327 330 331 330 331 331 328 320 315 314 313 313 312 312 312 312 310 308 308 310 312 313 313 313 313 312 313
330 327 322 323 323 322 331 330 331 333 324 325 328 327 329 331 331 329 324 327 333 331 331 332 334 333 331 334 334 334 333 332 335 334 331 328 324 320 319 319 322 330 337 338 338 338 337 336 335 333 330 322 315 310 310 309 310 311 311 312 316 322 322 322 323 321 320 317 321 327 327 330 331 331 331 331 327 317 312 312 312 312 312 312 312 311 310 308 309 310 311 312 313 312 312 312 312
330 328 322 323 324 324 330 327 329 329 323 328 325 327 336 336 330 323 323 331 332 328 328 333 336 333 332 334 333 333 334 334 335 332 329 325 321 318 318 319 326 333 338 338 337 338 336 336 334 331 325 317 312 309 309 309 310 310 311 312 312 317 319 323 324 316 315 315 319 326 329 331 330 331 331 330 325 315 312 312 312 312 312 312 312 311 310 309 309 310 311 312 312 312 312 312 312
329 328 322 323 323 320 326 322 323 327 327 331 326 332 338 330 325 322 325 331 330 327 327 332 334 333 333 333 332 332 333 334 332 329 327 322 318 318 319 321 329 334 336 336 337 336 336 335 334 331 323 315 311 310 309 309 310 310 314 316 313 315 320 325 323 314 317 321 323 327 328 329 329 331 330 327 323 315 312 312 312 312 312 312 311 311 310 310 311 311 312 312 312 312 312 312 312
329 327 321 323 323 320 332 328 329 332 324 324 324 333 332 321 322 324 325 328 328 325 327 331 331 333 335 333 333 332 332 334 330 327 324 320 316 318 320 323 331 335 334 336 335 335 335 334 333 329 323 317 313 311 311 309 310 313 319 322 319 316 321 327 322 315 323 329 329 329 328 328 329 329 327 324 319 313 311 312 312 312 312 312 311 311 311 311 311 311 312 311 312 312 312 312 312
327 326 321 327 329 327 337 330 332 334 318 316 319 326 325 320 322 323 324 324 326 326 327 331 330 334 336 332 333 332 332 332 331 327 324 320 316 318 321 324 330 334 334 334 334 333 334 332 331 328 323 319 315 314 313 310 310 316 321 322 322 318 322 327 325 320 324 331 331 330 330 328 329 327 323 320 315 311 311 312 312 312 312 312 311 311 312 311 311 311 312 312 312 312 312 312 312
326 325 321 326 330 330 339 334 328 326 320 320 319 321 321 321 324 323 323 322 324 325 328 331 330 331 332 331 332 331 331 331 332 329 325 321 316 317 321 324 329 333 333 333 334 333 332 331 329 326 323 319 316 314 312 310 309 314 317 318 320 319 322 326 327 325 324 328 330 331 330 328 329 326 321 318 314 311 312 312 312 312 312 312 312 312 312 311 311 312 312 312 312 312 313 313 313
326 325 321 325 332 328 332 335 328 321 321 320 318 322 322 322 324 322 323 322 323 327 329 331 329 328 331 332 331 331 330 330 331 331 328 325 319 317 319 323 326 330 332 333 333 333 333 332 330 326 322 317 316 313 309 309 309 310 312 314 317 316 318 323 326 326 322 325 330 330 328 327 328 326 320 317 313 312 311 312 312 312 312 312 312 312 312 312 312 312 312 312 313 313 313 313 313
325 321 322 329 335 329 329 335 335 329 322 318 318 321 323 323 324 321 321 322 323 327 328 329 329 329 331 331 331 330 330 330 331 330 330 328 324 320 319 321 323 326 330 332 332 332 333 332 331 328 324 319 315 311 308 309 308 309 311 312 315 315 315 319 322 322 319 321 326 327 326 327 328 324 320 316 313 312 312 312 312 312 312 312 312 312 312 312 313 313 313 313 313 313 313 313 313
324 324 333 337 333 330 331 334 337 336 328 324 323 321 323 323 323 321 320 323 323 324 325 328 328 329 333 333 331 330 328 330 330 329 331 331 329 324 320 320 321 323 327 331 330 330 331 331 330 328 325 319 313 310 309 309 308 309 311 312 313 316 315 316 318 318 317 319 322 326 326 327 326 323 318 315 313 312 312 312 312 312 312 312 312 312 312 313 313 313 313 313 313 313 313 313 313
324 326 338 333 328 331 330 330 330 330 329 327 323 320 324 323 322 321 320 322 322 324 326 327 327 329 337 335 330 329 328 330 331 331 332 332 331 328 324 320 319 318 322 327 330 330 329 328 326 325 322 316 311 310 309 308 309 308 309 311 313 316 315 314 317 317 318 318 319 324 326 324 322 320 316 314 312 311 312 312 312 312 312 312 312 313 313 313 313 313 313 313 313 313 313 313 312
324 324 332 328 326 333 331 328 324 322 327 327 320 319 324 323 323 321 320 323 322 324 325 324 327 328 332 332 330 329 327 328 331 332 332 333 332 330 325 319 316 315 315 319 326 330 329 325 321 319 317 313 310 309 310 308 308 309 308 311 313 315 314 314 317 317 317 317 317 321 323 321 320 318 315 314 313 312 312 312 312 312 312 312 313 313 313 313 313 313 313 313 313 313 313 313 312
325 321 330 332 327 330 329 328 324 324 330 326 320 319 322 323 322 320 320 324 323 322 322 324 328 327 326 331 331 327 326 326 329 333 333 333 333 331 325 317 314 313 312 312 317 325 327 325 318 315 313 311 310 309 309 308 308 309 309 310 313 314 314 314 315 316 316 318 318 318 319 319 319 317 314 314 312 312 312 312 312 312 312 313 313 313 313 313 313 312 313 312 313 313 313 312 312
324 322 331 332 325 326 326 326 324 325 326 320 317 319 321 321 321 320 320 321 322 321 323 325 328 326 323 326 327 326 327 325 328 333 334 333 333 331 328 321 317 314 312 311 311 316 321 321 316 314 312 310 310 310 308 308 308 309 309 311 311 313 314 313 314 315 315 317 318 318 318 318 317 316 314 313 312 311 312 312 312 312 313 313 313 313 313 312 312 312 312 312 312 312 312 312 312
322 325 334 333 328 328 328 328 324 324 326 318 315 318 320 321 320 320 320 320 321 321 323 326 327 326 323 323 324 326 327 326 328 332 334 334 332 331 330 326 322 317 313 312 311 312 314 315 314 312 311 310 310 309 308 308 308 309 309 311 311 311 312 313 313 314 315 316 317 317 317 316 315 315 314 313 312 311 312 312 312 312 313 313 313 313 313 312 312 312 312 312 312 312 312 312 312
325 333 337 334 334 332 330 331 322 322 326 318 315 318 320 322 320 318 321 321 321 322 323 324 325 325 323 323 325 326 327 327 326 329 333 334 332 330 330 327 322 317 313 311 311 310 311 311 310 309 309 309 309 308 308 308 308 309 309 310 311 311 312 313 312 313 313 314 315 315 315 315 315 314 314 313 312 312 312 312 312 313 313 313 313 313 313 312 312 312 312 312 312 312 311 312 312
328 335 336 336 337 329 325 326 319 319 323 318 316 317 320 321 319 319 322 322 322 325 324 323 324 323 323 323 324 327 327 327 326 326 330 332 332 330 329 327 321 316 313 311 311 310 310 310 309 308 308 308 308 308 308 308 308 309 309 310 310 311 311 312 312 312 312 313 314 314 314 314 314 314 314 313 313 312 312 312 313 313 313 314 313 313 313 312 312 312 312 312 312 312 312 312 312
323 329 337 339 332 325 322 322 320 321 320 317 316 317 318 320 320 320 322 322 323 325 324 322 323 322 322 322 323 326 327 328 327 326 327 329 331 331 329 327 322 316 314 312 311 310 310 309 309 308 308 308 308 308 308 308 308 309 309 309 310 310 311 311 312 312 312 313 313 313 313 313 314 314 313 313 312 312 312 313 313 313 313 314 313 313 313 313 312 312 312 312 312 312 312 312 313
320 324 336 334 325 327 327 322 320 320 318 316 316 317 318 319 320 320 320 324 326 323 321 321 321 320 320 320 322 324 325 327 327 326 326 327 328 329 329 328 327 322 318 315 312 310 310 309 309 308 308 308 308 308 308 308 308 309 309 309 309 309 310 310 311 311 312 312 313 313 313 313 313 313 313 313 312 312 313 313 313 313 314 313 313 313 313 313 312 312 312 312 312 312 312 313 313
321 321 324 322 321 327 327 323 323 320 317 316 315 317 320 319 319 320 320 324 326 323 321 321 320 320 320 319 320 321 323 325 325 325 324 324 325 327 328 329 329 327 322 318 313 311 309 309 309 308 308 308 308 308 308 308 309 309 309 309 309 310 310 311 311 311 312 312 313 312 313 313 313 313 313 313 313 313 313 313 313 314 314 314 313 313 313 313 313 313 313 312 312 312 313 313 314
324 323 319 319 321 324 324 323 322 319 317 316 316 318 319 318 319 320 320 322 322 321 321 321 320 321 320 319 320 320 321 322 322 321 321 321 322 325 327 328 329 327 324 319 315 313 310 309 309 308 308 308 308 308 308 308 309 309 309 309 309 310 311 311 311 311 311 312 312 312 313 313 313 313 313 313 313 313 314 313 314 314 314 314 314 313 313 313 313 313 313 313 313 313 314 314 314
325 326 321 320 321 321 321 320 318 317 317 317 317 318 318 319 320 319 319 322 321 321 321 320 320 321 321 320 320 319 319 319 318 318 318 319 321 324 327 329 329 328 325 321 318 315 312 310 309 309 308 308 308 308 308 308 309 309 309 309 309 310 311 311 312 311 312 312 312 312 312 313 313 313 313 313 313 314 314 314 314 314 314 314 314 314 313 313 313 313 314 314 313 314 314 314 315
324 326 323 320 320 320 320 318 317 316 316 317 317 317 317 319 319 316 319 322 321 322 321 320 320 320 321 320 319 320 319 319 319 319 319 319 320 324 327 329 329 329 327 324 321 317 315 312 311 310 309 309 309 309 309 309 309 309 309 309 309 309 310 311 311 312 312 311 312 312 312 313 313 314 314 314 314 314 314 314 314 314 314 314 314 314 314 314 314 314 314 314 314 314 314 315 316
323 323 322 321 321 321 321 320 318 317 316 316 316 316 316 317 316 316 319 321 321 321 321 320 319 319 320 320 319 320 320 320 320 319 318 318 320 323 326 328 329 328 327 325 323 320 318 316 314 313 311 310 310 310 310 310 309 309 309 309 309 309 309 310 311 311 312 312 312 312 313 313 313 314 314 314 314 314 314 315 314 314 314 314 314 315 315 315 315 315 314 314 315 314 315 316 316
323 322 322 323 323 322 321 321 320 319 316 315 317 317 315 314 315 317 319 320 320 320 320 320 319 319 319 320 320 320 320 320 320 320 319 318 319 320 323 326 328 327 326 326 324 322 321 319 317 316 314 313 312 312 312 313 312 310 310 309 309 309 308 309 310 311 312 312 312 312 312 312 313 313 314 314 314 314 315 315 314 315 314 315 315 315 315 315 315 315 315 315 315 315 315 316 317
323 321 323 323 322 322 319 319 319 318 317 315 316 316 314 314 314 316 318 318 319 318 319 320 319 319 319 319 320 320 320 321 321 321 320 318 316 316 320 324 327 327 326 326 325 324 323 321 319 318 317 316 316 316 315 315 315 314 312 310 309 309 309 308 309 311 312 312 312 312 312 312 313 313 313 314 314 315 315 315 315 315 315 315 315 315 316 316 316 316 316 316 316 316 316 317 318
323 322 326 326 322 324 321 318 317 316 318 316 314 318 318 316 316 315 317 319 319 318 318 318 319 318 318 319 319 319 320 321 321 321 320 318 316 315 316 319 324 326 327 326 325 325 324 323 321 320 319 318 319 319 319 318 318 318 316 314 311 309 309 309 308 309 310 312 312 312 312 312 312 313 313 313 314 314 315 315 315 315 315 315 315 315 316 316 317 317 317 317 317 317 317 318 318
324 323 328 329 326 328 325 317 315 315 316 316 317 324 324 320 318 317 318 319 319 319 319 319 319 318 318 318 318 319 319 320 320 320 320 319 318 317 315 316 318 322 325 326 326 325 325 325 324 322 321 320 320 320 321 321 320 320 320 318 315 311 310 309 309 308 309 310 312 312 312 312 312 313 313 313 313 314 314 315 315 315 315 315 316 316 316 316 317 317 317 317 317 318 318 318 318
329 324 326 331 332 336 329 314 313 317 315 314 320 324 326 323 320 319 319 320 319 319 320 320 321 320 319 319 318 319 319 319 320 319 320 320 319 319 317 316 315 316 320 323 326 326 326 326 325 324 323 322 321 320 321 321 322 322 322 321 319 315 312 310 309 309 309 309 310 311 312 312 312 312 313 313 313 313 314 314 314 315 315 316 316 316 316 316 317 317 317 317 317 318 318 318 318
331 328 329 331 331 339 334 314 311 320 316 313 319 323 324 323 320 320 321 320 320 319 320 321 321 322 321 320 319 319 319 319 319 319 319 320 320 319 318 318 316 315 315 317 320 323 326 326 326 325 325 324 323 322 322 321 322 322 322 322 321 319 316 313 310 309 309 309 309 310 311 312 312 312 313 313 313 313 313 314 314 314 315 316 316 316 316 316 317 317 317 317 317 317 318 318 318
331 329 332 332 329 334 335 320 312 316 317 313 317 323 327 325 319 320 322 321 319 317 318 319 319 321 321 320 320 319 320 319 319 319 319 319 319 319 319 318 317 316 315 315 315 317 321 323 325 326 325 325 325 324 323 322 322 322 322 322 322 321 320 317 314 311 309 309 309 309 309 310 311 312 312 312 313 313 314 314 314 314 315 315 316 316 316 316 317 317 317 317 317 317 317 317 318
331 329 331 332 330 330 333 329 317 313 316 316 317 320 325 326 320 318 320 320 318 315 316 318 318 319 319 319 320 319 319 319 320 321 321 320 319 319 319 319 318 317 317 316 315 315 315 318 320 323 325 325 325 325 325 324 323 323 322 322 321 321 321 320 318 315 312 310 309 309 309 309 310 311 312 312 312 313 313 314 314 315 315 315 316 316 316 316 316 316 317 317 317 317 317 317 317
331 329 330 329 329 330 331 332 323 314 316 319 318 318 320 322 320 318 319 318 319 318 318 320 319 318 318 317 318 319 318 319 320 321 321 321 320 319 318 318 318 318 317 317 316 316 315 316 316 318 320 322 324 324 324 325 324 324 323 322 322 321 321 321 320 319 317 314 311 310 309 309 309 310 310 311 312 312 313 313 314 314 314 315 315 316 316 316 316 316 316 317 317 316 316 317 317
331 330 331 330 330 330 329 330 324 315 315 319 318 319 318 319 319 318 318 317 317 318 318 319 319 318 318 317 317 318 318 319 320 320 320 320 319 319 319 318 318 318 318 317 317 317 316 316 316 315 316 317 319 321 322 323 323 324 323 323 322 321 321 321 321 320 319 318 315 313 311 310 310 310 310 310 311 312 312 312 313 313 313 314 314 315 315 316 316 316 316 316 316 316 316 317 318
331 330 331 332 332 331 329 329 325 315 316 320 318 318 319 319 319 317 316 316 315 316 315 316 318 319 319 320 320 320 320 321 321 320 320 320 319 319 319 318 319 318 319 318 318 317 316 316 316 315 315 315 316 317 317 319 320 320 320 320 319 318 319 320 320 321 320 319 318 317 314 313 311 310 310 310 310 311 311 311 312 312 312 313 314 314 314 315 316 316 316 316 316 316 316 317 317
332 331 331 332 332 331 330 329 326 316 316 322 320 318 318 317 317 315 314 316 316 315 315 315 316 318 319 320 321 322 323 323 323 322 322 321 320 319 319 318 318 318 318 318 318 317 316 316 316 315 315 315 315 315 315 316 316 316 316 316 316 316 316 317 318 319 319 320 319 319 318 316 314 313 312 311 310 310 310 311 311 311 312 312 313 313 314 315 315 315 316 316 316 316 316 316 317
332 331 331 333 331 330 330 328 325 319 318 327 326 321 320 319 318 316 314 314 316 316 317 317 317 318 319 319 321 323 324 324 324 324 324 323 321 320 319 319 318 318 318 318 318 319 318 317 316 316 315 316 315 315 315 315 314 315 315 316 316 317 316 316 317 318 319 320 320 320 319 319 318 316 315 313 312 312 311 311 311 311 312 312 312 313 313 314 314 315 315 315 316 316 316 316 317
331 331 330 333 331 331 333 328 324 321 320 324 326 323 323 322 321 320 316 315 318 319 318 319 320 319 319 320 321 323 324 325 325 325 325 324 323 321 320 319 319 318 318 317 318 319 319 319 318 317 316 316 316 316 316 315 315 316 317 317 318 319 319 319 318 318 318 319 319 319 319 320 319 318 317 316 315 314 314 313 313 313 313 313 313 313 314 314 314 314 315 315 315 316 316 316 316
330 331 329 332 332 331 333 329 322 320 320 319 322 326 327 325 326 324 321 318 318 318 318 319 320 320 320 320 321 322 323 325 326 326 326 326 325 324 322 321 320 319 318 318 318 318 319 319 319 318 317 316 316 316 316 316 317 317 318 319 319 319 319 319 318 317 316 317 317 316 317 318 319 319 319 318 317 317 316 316 315 315 315 315 315 315 315 315 315 315 315 315 316 316 316 316 317
330 330 329 331 332 331 330 327 323 325 327 323 323 331 335 333 332 329 326 325 322 318 317 318 320 321 320 319 321 323 324 325 326 326 326 326 326 326 325 324 322 321 320 319 319 319 319 319 318 318 318 318 317 317 316 317 317 317 318 318 318 317 317 316 315 314 315 315 315 315 315 316 317 318 318 318 318 318 318 318 317 317 316 316 316 316 316 316 316 316 316 316 316 316 316 317 317
330 330 330 331 332 333 329 325 328 332 332 326 322 330 336 335 334 333 329 328 327 322 319 318 319 320 320 320 323 326 326 327 327 327 327 327 326 326 326 326 325 325 324 323 321 321 321 320 319 318 318 319 318 318 317 317 317 317 317 317 316 316 316 315 314 315 315 315 315 315 316 316 316 316 317 317 317 317 318 318 318 318 318 318 317 317 317 317 317 317 317 317 317 317 317 317 318
331 330 330 331 331 334 329 325 330 331 328 325 320 324 331 331 331 333 329 329 330 326 324 321 317 318 320 320 323 326 328 328 327 327 327 327 327 327 326 326 326 326 325 325 323 323 323 322 320 318 318 318 319 319 319 318 318 317 317 317 317 317 316 315 315 316 315 316 316 316 316 316 316 316 316 316 316 317 317 317 318 318 318 318 318 318 318 318 318 318 318 318 318 318 318 319 319
329 328 328 328 329 331 328 326 328 327 327 329 323 321 328 330 328 327 325 328 331 327 327 324 318 318 320 322 324 326 327 327 327 327 327 327 327 327 327 326 326 326 325 325 325 324 324 324 323 320 319 319 319 319 319 319 318 318 318 318 318 316 315 315 316 316 316 316 316 315 316 316 316 316 316 316 317 317 317 317 317 317 317 318 318 318 319 319 320 320 320 320 321 321 321 321 322
326 324 324 325 326 327 328 329 329 328 328 331 326 322 329 333 329 326 323 326 330 327 327 326 321 320 323 324 325 325 325 325 325 326 327 327 327 327 327 326 326 326 325 325 325 325 324 324 323 322 321 321 321 321 321 320 319 319 318 318 317 316 315 316 316 316 316 316 315 315 315 315 316 316 316 317 317 318 318 318 318 318 317 317 317 318 319 319 320 320 321 321 322 322 322 322 321
323 324 326 326 327 328 329 329 329 330 331 332 328 323 328 334 332 329 326 326 327 326 326 326 323 321 323 325 326 326 326 326 325 326 325 326 326 326 325 325 325 325 325 325 324 324 324 323 323 323 323 323 322 322 322 321 319 319 318 317 316 315 315 316 316 315 315 315 315 315 315 316 316 317 317 318 318 319 319 319 319 319 319 318 318 318 318 318 319 319 320 320 321 321 321 321 321
324 328 330 330 328 328 329 326 326 332 333 331 329 324 326 332 334 331 329 326 327 326 326 329 325 321 322 324 325 326 327 326 326 326 325 325 325 324 324 324 324 324 324 324 324 324 324 324 323 323 322 323 322 322 322 321 320 319 319 317 316 315 316 317 316 315 315 315 315 315 316 317 317 317 318 318 318 319 319 320 320 320 320 320 320 319 320 320 320 320 319 319 319 320 321 321 321
327 328 329 331 330 330 332 329 328 334 332 325 324 324 325 329 331 330 329 328 327 324 322 325 324 321 323 325 325 325 326 326 325 324 323 323 322 322 323 323 323 323 323 323 324 324 324 324 323 322 322 322 322 322 322 322 320 319 319 318 318 317 317 317 317 315 315 316 316 317 317 317 317 318 318 318 318 319 320 321 321 321 321 321 321 321 321 321 321 320 320 320 321 321 321 321 321
327 327 328 331 330 332 335 332 331 333 329 321 320 324 327 329 329 327 328 327 324 320 319 321 322 322 324 324 323 324 325 324 324 323 321 320 321 321 321 321 322 322 322 323 323 324 324 324 323 323 322 322 322 322 322 321 320 318 319 319 319 319 319 318 317 315 316 316 317 317 317 317 317 317 318 318 319 320 321 322 322 322 322 322 322 322 322 322 322 322 322 321 321 321 322 323 323
326 328 330 330 330 335 335 333 335 335 328 321 321 325 330 333 332 325 319 318 317 317 320 320 320 322 323 322 321 322 323 323 324 323 322 322 321 321 321 321 321 321 322 322 322 323 323 323 324 323 322 322 322 322 321 321 320 318 318 319 320 320 320 319 317 316 317 317 317 317 317 317 317 317 318 319 320 321 322 322 322 322 322 323 323 323 324 324 324 323 323 323 323 324 324 325 324
326 328 333 330 330 336 331 326 328 331 330 326 322 325 328 329 327 320 316 316 315 315 316 316 317 319 320 320 321 322 322 323 323 322 322 323 322 321 320 320 321 321 322 321 321 321 322 323 323 323 322 322 322 321 321 321 320 319 318 318 319 320 320 320 318 317 317 317 317 316 317 317 317 318 319 319 320 321 321 322 322 322 323 324 324 324 323 322 323 323 323 323 324 324 323 323 322
326 327 331 326 325 332 330 323 319 323 330 329 323 325 327 327 326 322 322 324 322 320 317 312 314 317 317 319 321 323 323 323 321 319 319 320 321 321 320 320 320 321 322 322 321 321 321 322 323 323 323 322 322 321 321 320 320 319 319 319 319 320 320 320 318 316 316 316 316 316 317 317 317 318 318 319 320 321 321 322 322 323 324 325 324 323 322 322 322 322 322 322 321 321 322 322 322
326 328 326 323 323 327 328 328 326 325 328 328 325 326 329 331 330 324 324 326 326 328 325 316 314 314 314 317 319 320 320 319 317 317 317 318 319 320 320 320 320 321 322 322 322 322 322 322 323 323 323 322 321 321 321 320 320 319 319 319 319 319 320 320 319 317 317 316 317 317 317 317 317 318 318 318 319 320 321 321 321 323 323 324 323 322 322 322 322 322 323 323 322 323 323 323 322
323 325 323 324 328 326 325 329 331 329 329 329 327 325 326 328 327 322 324 326 326 327 327 325 321 316 313 316 319 319 319 318 317 317 317 318 319 319 320 320 320 321 322 322 322 322 322 322 322 322 321 321 320 320 320 320 319 319 319 319 319 319 320 320 320 319 318 317 317 318 318 317 317 317 317 317 317 318 318 319 320 321 321 321 321 321 322 321 320 320 323 324 325 324 323 323 324
321 322 323 325 328 327 326 329 332 332 329 329 329 326 325 325 323 323 325 327 328 326 326 328 323 316 315 317 320 321 320 319 318 317 317 318 319 319 319 320 320 320 321 321 321 321 320 320 320 320 319 319 319 318 318 318 318 319 318 319 319 319 319 319 319 319 318 317 318 318 318 317 317 316 316 315 316 316 316 317 319 319 319 319 320 321 322 321 319 319 322 323 323 323 323 323 322
323 325 325 325 326 326 327 327 330 331 329 329 329 327 328 327 323 324 325 326 328 326 327 327 318 313 316 317 318 318 317 318 318 318 317 318 319 319 319 319 319 320 320 320 319 319 318 319 318 318 318 318 318 317 317 317 317 317 318 318 318 318 319 319 319 318 318 317 318 318 317 316 315 315 314 314 314 314 314 316 316 316 317 317 317 318 319 320 320 321 322 322 322 324 325 322 320
324 326 325 325 325 326 328 328 327 327 327 331 330 327 331 330 322 320 322 325 325 323 323 323 315 312 315 316 316 316 316 317 318 317 317 319 319 319 319 319 319 320 319 319 319 318 318 317 317 317 317 317 317 317 317 317 316 317 317 317 318 318 318 318 318 317 317 317 318 317 316 315 314 314 313 313 313 313 313 313 313 314 314 315 316 316 316 316 317 318 320 321 323 323 321 320 322
Wind_Speed
9 10 10 9 11 11 8 5 1 2 4 2 1 1 2 2 1 1 2 1 0 3 4 5 10 16 8 2 6 3 4 6 5 3 1 4 16 20 16 17 20 23 25 23 21 19 17 14 12 10 7 6 5 5 5 6 6 7 7 7 7 6 5 4 3 3 6 8 10 12 13 13 13 12 11 9 9 8 7 6 5 5 6 7 8 8 9 11 12 13 13 13 14 14 14 13 13
9 10 11 9 10 8 4 4 1 2 5 1 3 2 3 1 1 5 6 4 3 5 7 11 14 15 6 3 5 2 3 4 4 3 2 11 19 18 16 17 21 24 25 23 21 20 17 14 11 9 7 5 5 5 6 6 6 6 7 7 7 6 6 4 4 5 7 9 11 11 12 13 12 11 9 7 7 7 6 6 5 5 6 8 9 9 10 11 12 12 12 12 12 13 13 13 13
8 11 11 8 9 6 2 4 1 1 4 2 4 3 1 1 5 7 8 6 11 15 15 14 11 9 3 2 3 1 3 4 5 4 6 16 17 16 19 18 22 24 23 22 21 19 16 13 10 8 6 5 5 6 6 6 6 7 7 7 6 7 7 5 6 7 8 10 11 11 13 14 11 10 9 7 6 7 6 6 6 6 7 8 9 10 10 10 11 11 10 11 12 12 12 12 12
8 10 10 8 6 4 3 4 2 4 2 3 3 4 3 5 7 6 7 10 16 15 10 9 6 3 1 1 2 1 2 3 6 7 9 16 15 16 21 21 23 23 21 21 19 17 14 11 8 7 6 5 5 6 6 6 6 7 8 8 6 6 7 6 7 7 9 10 11 12 13 13 11 10 10 8 8 8 8 7 7 7 8 9 10 10 10 10 10 9 9 10 10 11 11 11 12
8 9 9 7 3 2 3 3 2 4 2 4 0 5 5 6 6 5 6 13 16 8 4 5 3 3 2 2 2 1 1 2 7 9 11 16 15 16 21 23 23 22 20 18 17 15 13 10 7 6 5 5 6 6 5 4 4 5 6 8 8 7 7 6 7 8 10 11 11 13 13 11 10 10 9 8 7 7 8 7 7 8 9 9 10 10 10 10 9 9 8 8 9 10 10 11 11
7 7 7 6 4 2 2 1 0 0 4 5 1 5 5 6 7 6 7 12 11 3 1 3 3 5 3 2 1 3 4 3 7 11 13 16 15 17 21 24 23 22 20 17 16 14 12 10 8 6 5 5 5 5 4 3 2 4 5 6 8 8 7 6 7 10 11 11 11 11 11 10 11 10 8 7 6 6 7 7 8 9 9 10 10 10 10 9 9 8 7 7 8 8 9 10 10
6 5 6 4 4 3 3 2 2 3 4 4 3 4 5 8 10 8 7 7 6 5 5 5 6 6 2 2 2 5 5 4 8 10 13 14 14 17 20 23 22 21 19 17 15 13 12 10 8 7 6 5 5 4 3 3 3 4 6 5 6 7 8 7 7 10 11 10 10 9 9 10 9 8 7 6 6 6 7 8 8 9 9 10 10 9 9 8 8 7 6 6 7 7 8 8 9
5 5 4 3 2 4 4 2 3 3 2 3 4 4 5 11 13 9 6 4 3 4 6 7 7 3 2 4 3 6 4 5 9 11 13 13 14 16 18 22 21 20 18 17 15 13 12 10 9 8 7 6 5 4 3 3 3 4 6 6 5 7 8 8 8 9 11 11 11 9 8 9 8 7 7 7 7 8 8 8 9 9 9 9 9 8 8 7 7 6 6 6 6 6 7 7 8
4 4 3 2 2 2 3 2 3 3 3 4 4 4 5 12 12 9 5 2 2 5 7 11 7 1 4 5 3 6 5 6 10 12 14 12 13 14 16 19 19 19 17 16 15 14 13 11 10 8 7 6 6 5 4 3 3 4 5 6 6 7 8 8 8 8 10 12 12 10 9 9 8 7 7 8 8 8 8 9 9 9 9 8 8 8 7 6 6 5 5 5 5 5 6 7 7
3 3 1 2 2 2 3 3 2 2 4 5 5 4 7 12 11 7 5 2 3 5 8 11 4 2 6 5 4 6 6 8 11 14 15 12 13 13 15 16 16 17 17 16 16 15 13 12 11 9 8 7 6 5 4 3 2 3 4 5 6 6 8 9 9 8 9 12 12 11 10 10 8 7 8 8 8 8 9 9 9 8 9 8 7 7 6 6 5 4 4 4 4 4 5 5 5
1 2 3 3 3 1 1 3 3 3 5 5 4 4 7 11 10 5 4 2 5 6 8 9 4 5 7 3 5 7 8 9 10 14 15 13 13 12 14 14 14 15 15 17 16 15 14 13 12 10 9 8 7 6 4 3 3 3 3 4 5 5 7 8 8 8 9 11 12 11 11 10 8 8 8 9 9 9 9 9 8 8 8 7 7 6 5 5 4 4 3 3 3 3 4 4 4
1 1 3 3 2 2 3 2 4 5 5 3 2 5 8 12 8 5 5 4 7 5 7 9 4 7 5 2 7 8 9 10 10 13 13 13 13 12 12 13 13 14 15 16 16 15 15 14 13 12 10 9 8 6 5 4 4 4 4 4 5 6 7 7 7 8 9 9 11 11 10 11 9 8 8 9 9 9 9 9 8 8 7 7 6 5 4 4 3 3 2 2 2 3 4 4 5
2 2 4 2 3 2 3 1 4 3 4 3 3 6 9 12 9 9 9 6 8 5 7 10 6 7 4 2 7 11 11 12 12 12 11 12 12 12 12 11 12 12 14 15 16 15 15 15 14 13 11 10 9 8 6 5 5 5 5 6 7 7 6 7 7 8 8 8 11 11 10 10 9 8 8 9 9 9 9 9 8 7 7 6 5 4 3 3 2 2 1 1 1 2 3 4 5
3 4 4 1 1 2 4 1 2 1 3 5 4 9 12 11 10 11 10 7 9 8 6 9 8 6 4 3 6 12 14 13 14 13 10 11 12 12 11 11 11 11 12 14 15 15 14 14 13 12 12 11 10 9 8 7 6 6 6 7 7 7 7 7 7 7 7 9 11 11 10 10 9 8 8 8 8 9 9 9 8 7 7 6 5 4 3 2 1 1 0 1 1 2 3 5 6
7 5 4 2 2 1 3 1 1 4 4 4 5 10 13 12 9 9 12 9 10 11 7 8 10 5 3 5 4 8 14 15 15 14 12 12 13 13 12 12 11 11 12 13 15 15 15 15 13 12 13 12 11 10 9 8 8 7 7 7 7 8 8 9 8 7 7 9 10 10 9 9 10 9 8 8 9 9 9 9 8 7 6 5 4 3 3 2 1 1 1 1 2 3 3 5 6
10 6 4 2 1 1 3 2 2 3 5 5 7 10 10 11 11 7 11 10 7 11 10 9 13 9 4 5 3 4 12 16 15 15 14 14 15 15 14 14 13 12 12 13 15 16 16 16 15 14 14 13 12 11 10 9 8 8 8 8 8 8 7 9 8 7 8 10 10 9 8 9 10 9 9 9 10 10 9 9 8 8 6 5 5 4 3 2 2 2 2 2 3 3 4 5 6
9 5 3 1 3 2 3 4 3 3 5 4 8 13 9 5 11 9 9 10 7 11 13 10 14 15 8 5 5 5 10 16 16 17 17 17 17 18 17 17 16 16 15 15 14 16 17 17 17 16 15 14 13 13 12 10 9 9 9 9 9 8 8 8 9 8 9 11 10 10 8 8 9 10 10 10 10 10 10 10 9 8 7 6 5 4 4 3 3 3 3 3 4 4 5 6 7
8 3 2 3 4 4 5 6 7 3 1 5 11 17 13 6 10 11 7 8 8 11 15 13 13 17 15 9 7 7 9 14 17 19 20 21 21 21 20 20 19 19 18 17 16 16 17 18 18 16 15 14 14 14 13 11 10 10 10 10 9 9 9 8 9 10 10 10 11 11 10 9 9 10 11 11 11 11 11 11 10 9 8 7 6 5 5 4 4 4 4 4 5 5 6 7 8
6 2 2 4 5 5 6 8 9 5 2 7 13 16 16 10 12 14 7 6 8 8 12 13 14 17 17 14 11 10 10 14 18 19 21 23 23 24 22 21 20 19 19 18 17 17 18 18 19 17 15 15 14 14 13 12 11 11 11 11 11 11 10 10 10 10 11 11 11 11 11 10 11 11 12 12 12 12 12 12 11 10 9 9 8 7 6 5 5 5 5 5 6 6 7 7 8
4 3 3 5 6 5 6 10 10 9 6 5 10 14 14 11 14 15 8 5 6 8 12 13 16 19 18 16 14 13 12 15 17 19 21 23 23 24 23 21 20 19 19 18 17 18 18 19 19 18 16 15 15 15 14 13 12 12 12 12 12 12 11 11 11 11 11 11 11 11 11 11 12 13 13 14 14 14 13 13 12 11 10 9 8 7 7 6 6 6 6 6 7 7 8 8 9
4 5 4 5 7 4 7 12 10 8 8 5 9 11 10 11 14 15 10 5 4 13 19 19 19 18 17 18 17 15 15 16 18 20 21 23 23 23 22 21 20 19 18 17 18 18 18 19 19 18 17 16 15 15 15 14 13 13 14 13 13 13 12 12 12 12 12 12 12 12 13 13 13 14 14 15 15 15 14 14 13 12 11 9 9 8 8 7 7 7 7 7 7 8 8 9 10
5 5 5 5 8 4 6 11 10 9 8 6 9 10 11 14 14 17 15 8 9 17 20 21 20 17 15 16 17 17 18 18 19 20 22 23 23 22 22 22 21 20 18 17 17 17 17 18 19 19 18 17 16 15 15 15 15 14 14 14 14 13 13 13 13 13 12 13 13 13 14 14 14 15 15 15 15 15 15 14 13 12 12 10 10 9 8 8 8 7 7 8 8 8 8 9 10
5 5 5 7 9 6 4 8 10 10 8 9 11 10 13 14 10 17 20 17 18 16 13 14 16 18 16 15 17 18 19 19 20 19 20 22 23 22 21 22 21 20 19 17 17 16 16 17 18 18 18 17 16 16 16 16 16 15 15 15 15 14 14 14 14 13 13 13 14 14 14 15 15 15 15 16 16 16 16 15 14 13 13 12 11 10 10 9 8 8 8 8 9 8 8 8 9
6 3 6 10 12 10 6 7 9 9 9 10 10 9 11 14 8 12 20 24 24 16 11 10 11 16 18 17 17 18 17 18 18 18 18 19 21 21 21 21 21 21 21 20 18 17 16 16 17 17 17 17 16 16 16 16 16 16 16 16 16 16 16 16 15 14 14 14 15 15 15 16 16 16 16 16 16 16 16 16 15 15 14 13 12 11 11 10 9 9 9 9 9 9 9 8 9
6 5 6 8 11 13 9 7 8 8 8 8 10 9 11 14 8 8 19 24 23 21 17 13 11 14 19 20 19 18 18 17 17 18 19 19 21 22 22 22 22 23 23 21 19 18 16 16 16 17 17 16 16 16 16 16 16 16 17 17 17 17 17 17 16 16 16 16 16 16 16 16 17 17 17 17 17 17 17 17 17 16 15 14 13 12 11 11 10 10 10 10 10 10 10 9 10
8 10 7 6 7 10 10 10 9 8 8 7 10 8 8 12 7 7 19 22 19 22 21 18 15 14 19 21 20 19 18 18 17 18 18 18 21 23 23 23 24 24 23 22 21 20 18 18 18 17 17 17 17 17 16 16 16 17 17 17 18 19 19 18 18 18 17 18 18 17 17 17 17 18 18 18 18 18 18 18 18 17 16 15 14 13 12 12 11 11 11 11 11 11 11 11 12
9 12 9 8 8 6 8 11 12 10 8 9 10 7 6 8 6 6 15 19 18 19 20 20 18 16 18 20 21 21 20 19 17 17 19 20 22 23 23 24 25 24 23 24 24 22 21 21 20 19 19 18 18 18 17 17 17 17 16 17 18 20 20 20 20 20 19 19 19 19 19 18 19 19 19 19 20 19 20 19 19 18 17 16 15 14 13 13 13 13 13 13 13 13 12 12 13
7 10 7 9 8 5 6 8 9 9 6 10 11 4 3 5 5 7 11 14 16 18 19 21 21 18 17 19 20 21 21 20 19 20 21 21 20 20 22 23 24 23 25 27 25 24 24 23 22 21 21 20 20 20 19 18 17 17 16 16 17 19 20 22 22 21 21 20 20 20 20 20 20 20 20 21 21 21 21 20 20 20 18 18 17 15 15 15 15 15 14 14 14 14 13 12 13
5 8 4 6 5 4 8 7 7 9 4 8 8 2 5 5 8 11 11 13 13 15 18 20 22 22 20 19 20 21 21 21 23 24 22 20 18 19 20 21 22 24 25 25 25 26 26 25 24 24 24 24 23 22 20 20 18 17 17 16 16 17 19 21 23 23 22 21 21 22 21 21 21 21 22 22 22 22 22 22 21 21 19 19 19 17 17 16 17 16 16 16 15 15 15 13 14
4 5 2 2 2 4 8 7 6 8 4 8 11 3 7 9 14 15 15 17 15 16 19 20 22 24 24 23 24 24 23 23 25 24 22 21 20 20 20 21 23 24 24 25 27 28 28 27 26 26 26 26 26 24 23 21 20 19 18 17 16 17 18 19 22 24 24 23 22 23 23 22 22 22 23 23 23 23 23 23 23 22 21 20 21 20 19 18 18 18 17 17 16 16 16 14 14
3 2 1 2 3 5 6 5 9 7 4 9 11 4 8 8 13 15 16 21 21 22 23 24 25 25 26 27 27 28 26 26 26 25 24 23 23 23 22 22 23 25 25 27 28 28 28 28 28 28 28 28 28 27 26 24 22 21 20 20 18 18 18 19 20 22 24 25 24 24 24 24 23 23 24 24 25 25 25 25 24 23 21 22 23 22 21 20 20 19 18 18 18 17 17 16 15
2 3 3 2 4 5 5 4 13 9 4 9 9 3 8 8 11 14 16 20 22 26 29 29 30 29 29 30 30 31 30 29 28 27 26 26 26 26 25 24 24 25 25 26 26 27 29 30 30 30 30 30 30 29 28 26 25 24 23 22 21 20 20 20 20 20 23 25 26 26 26 25 25 24 25 25 26 26 26 26 25 24 22 23 24 24 24 22 21 20 19 19 19 19 19 18 17
3 5 4 3 5 5 4 3 12 11 3 6 7 4 6 6 8 13 16 22 23 24 28 29 30 31 32 32 33 33 32 31 32 31 29 28 29 28 27 26 25 25 25 25 26 27 28 30 31 31 32 31 31 30 29 29 28 27 26 25 24 23 23 22 20 20 22 24 26 27 27 27 26 26 26 27 27 27 27 27 26 25 24 24 24 25 26 24 22 22 21 21 21 21 20 20 18
4 4 4 3 4 6 3 3 8 10 4 6 8 7 9 5 5 8 9 15 20 21 25 27 27 30 32 32 33 35 35 34 34 33 30 29 29 29 27 26 26 27 26 27 27 27 27 28 30 31 32 32 32 31 31 30 30 29 29 28 27 27 26 25 23 23 23 24 26 27 28 28 28 28 28 28 28 28 28 28 27 26 26 26 25 25 26 25 24 23 23 22 23 23 22 21 20
8 8 5 3 2 5 7 3 5 9 5 7 8 7 14 11 7 9 8 8 15 20 25 27 27 29 30 31 32 34 35 37 36 33 30 30 31 30 29 28 28 28 28 28 28 28 28 28 29 30 32 33 33 32 31 31 31 31 31 31 31 31 31 29 27 27 26 25 26 26 27 28 28 28 29 29 29 29 29 28 27 26 27 27 27 26 26 26 25 25 24 24 24 24 24 23 21
11 9 6 5 4 6 6 4 4 8 6 6 8 9 15 14 9 15 20 14 13 18 21 22 25 25 26 29 31 33 35 37 36 33 31 32 32 31 30 30 29 30 29 30 30 30 30 29 29 30 31 32 32 33 33 33 33 34 34 34 35 35 34 32 31 30 29 28 27 26 26 27 28 28 29 29 30 30 29 29 27 27 26 27 27 27 26 26 26 26 25 25 25 26 26 24 23
10 8 6 6 6 6 4 3 4 5 6 6 9 11 15 14 8 14 22 15 12 19 21 22 25 25 26 27 29 31 33 34 32 31 32 33 33 32 32 32 32 32 32 32 33 32 31 31 31 31 31 31 32 33 34 34 35 35 35 36 36 35 34 34 33 32 31 30 29 28 27 27 28 28 29 29 30 30 30 29 28 27 27 27 27 27 26 26 26 26 26 26 27 27 27 26 24
9 8 7 7 7 6 5 4 3 2 4 5 7 9 15 14 9 15 16 8 13 23 23 24 27 29 32 32 31 31 30 30 28 29 31 32 34 34 33 34 34 34 33 33 33 32 32 32 33 32 31 32 33 34 35 35 35 35 35 34 34 33 32 32 33 32 32 31 31 30 30 29 28 29 29 30 30 30 30 29 28 27 27 27 27 27 26 27 27 27 27 28 28 29 29 27 25
7 7 6 6 6 2 2 2 1 2 4 4 5 6 13 13 11 14 13 11 21 31 29 29 30 30 33 35 35 35 33 32 31 31 30 30 31 33 35 35 35 35 34 34 33 32 33 34 35 34 33 34 34 35 35 35 34 34 34 33 31 30 30 29 30 30 31 32 33 33 32 31 31 30 30 30 30 30 30 29 29 28 27 27 27 28 28 28 28 27 28 29 29 30 31 29 28
5 6 7 5 5 4 3 2 1 2 2 2 2 4 9 10 7 9 15 23 29 31 30 33 34 33 35 36 35 35 35 35 33 33 32 30 29 31 34 36 36 36 36 37 36 35 35 36 36 36 36 36 36 36 36 35 34 34 34 33 31 30 29 29 29 30 31 32 33 33 33 33 33 33 32 31 31 30 30 30 30 29 29 28 28 29 29 29 29 29 29 29 30 31 32 31 30
5 6 8 5 5 7 5 2 2 1 2 1 1 6 8 9 9 10 14 20 24 26 25 30 36 38 37 36 36 36 35 34 32 32 33 32 31 31 32 34 35 36 38 39 38 37 36 37 37 36 36 37 37 37 36 35 36 35 35 34 33 33 33 33 33 33 33 32 31 30 31 32 33 34 34 33 33 32 32 31 31 31 31 30 30 31 31 31 31 31 30 30 31 32 33 33 33
6 7 9 8 8 7 5 5 4 1 4 2 1 5 7 5 9 12 10 8 12 16 17 25 35 36 35 36 38 39 37 35 33 33 33 33 33 33 33 34 35 37 38 38 37 37 36 36 36 36 36 37 38 37 37 36 37 37 36 36 35 35 36 36 35 34 33 31 29 28 28 28 29 30 31 32 33 33 34 34 34 34 33 33 33 33 33 33 33 33 32 32 33 34 33 34 35
7 6 7 8 10 8 7 7 5 2 4 2 2 6 7 6 7 11 8 6 10 10 10 21 30 30 31 34 38 39 38 37 36 36 36 35 35 35 35 35 36 37 37 37 36 36 35 35 35 35 36 36 36 36 37 38 39 38 38 37 37 37 37 36 35 34 32 30 29 28 27 27 27 27 27 28 29 30 31 33 34 35 36 36 36 36 36 36 35 35 34 35 35 34 34 35 36
6 7 11 9 9 9 8 7 5 3 2 2 1 3 5 8 8 6 5 7 10 10 10 17 22 26 30 33 37 40 40 40 39 39 38 37 37 37 37 36 36 36 36 36 36 35 35 34 34 34 34 35 34 34 36 37 39 39 39 38 37 37 36 36 35 33 32 30 30 29 28 27 26 25 25 25 25 26 27 28 30 32 34 35 36 37 37 37 37 36 36 35 35 35 35 35 35
3 7 11 9 8 7 6 6 4 1 1 4 4 2 3 8 6 1 4 7 11 13 15 15 16 24 30 32 37 39 41 41 41 41 40 39 39 37 37 37 37 36 35 35 35 34 34 33 33 34 35 35 34 35 36 36 37 38 39 39 38 36 35 35 34 33 32 31 32 31 29 28 27 26 25 25 25 24 25 25 25 27 28 30 32 33 34 35 35 35 35 35 34 35 35 35 35
2 7 10 9 7 5 5 4 3 3 2 8 6 5 5 9 8 4 1 5 11 15 15 12 14 23 29 32 35 35 35 36 36 37 37 37 37 36 37 38 39 39 37 37 36 35 35 34 34 35 36 36 36 36 37 36 36 37 38 39 38 35 33 33 34 33 32 32 32 31 30 29 28 27 27 26 26 25 25 25 24 25 25 26 28 29 30 31 32 32 33 33 33 34 34 34 35
9 8 8 8 5 4 4 2 4 2 6 9 10 11 8 8 9 9 5 7 13 14 11 8 11 20 28 32 34 34 33 32 31 32 31 31 32 33 35 37 37 36 37 39 39 37 36 36 36 36 36 36 37 38 38 38 37 37 37 37 37 35 33 33 33 32 32 31 32 31 31 30 29 29 28 27 27 26 25 24 24 24 24 25 26 28 28 29 29 29 29 30 31 32 32 32 33
8 4 5 5 2 3 3 2 3 3 8 6 9 13 10 10 7 5 6 8 11 12 11 10 10 16 26 30 31 32 31 31 31 31 30 30 32 33 34 35 34 33 32 34 36 37 37 36 36 37 37 37 37 38 38 38 38 38 36 36 35 34 33 34 34 33 32 32 32 32 31 31 30 30 29 28 27 25 24 23 23 23 24 25 26 26 27 26 26 26 27 28 29 29 29 29 29
5 4 5 5 2 2 2 2 2 6 6 2 4 10 9 13 7 2 8 8 8 10 12 14 12 17 27 30 29 28 26 26 27 26 25 25 28 30 31 33 34 34 33 32 32 33 34 34 34 35 37 37 36 37 37 38 39 38 36 34 33 32 32 34 34 33 33 33 32 32 32 32 31 30 29 28 25 23 22 22 22 23 23 24 24 24 25 25 25 25 26 27 27 27 26 25 25
8 7 7 5 3 4 5 5 2 5 3 3 2 7 5 11 5 6 13 12 13 16 19 21 20 23 28 26 25 24 23 24 24 23 22 20 21 22 23 26 30 33 35 34 33 33 32 32 32 33 34 35 35 35 36 37 38 37 35 33 31 30 31 32 33 33 33 33 33 32 32 31 31 30 29 26 24 22 22 22 21 22 23 24 24 24 24 23 23 24 25 25 25 24 23 24 26
10 7 6 5 4 5 6 5 3 3 1 2 1 4 4 5 3 6 10 11 15 19 23 24 22 26 27 23 23 24 26 27 27 29 29 26 23 20 19 21 24 27 31 33 35 36 35 34 33 32 32 33 35 35 35 36 37 36 35 33 31 31 31 31 31 32 32 32 31 31 30 30 29 28 27 25 24 23 23 22 22 23 23 23 23 23 23 23 23 22 22 22 24 25 26 27 28
6 4 5 6 5 4 2 2 2 1 1 2 2 4 4 4 6 10 7 8 10 14 18 18 21 26 25 25 29 31 33 33 32 34 35 34 30 25 20 20 21 24 27 30 33 34 36 35 33 31 30 31 33 34 35 35 35 35 34 33 32 31 31 31 31 31 31 30 30 29 29 29 28 27 26 25 24 24 23 23 24 24 24 23 23 23 24 24 24 22 22 23 25 26 26 26 26
5 5 6 4 2 6 4 2 2 4 3 4 3 6 6 3 9 12 10 8 7 9 12 13 20 24 22 28 36 37 35 32 28 27 28 30 31 30 25 21 20 23 25 27 28 29 31 31 30 30 29 29 32 33 34 34 34 35 35 34 33 32 32 31 31 30 30 30 29 29 29 28 28 27 26 25 24 24 23 24 25 24 24 24 24 24 24 24 23 22 22 22 23 23 23 24 24
6 8 7 4 3 3 2 3 2 3 5 4 2 8 6 2 7 7 9 11 9 8 9 9 15 18 20 29 34 32 28 24 22 21 21 22 26 30 29 22 20 20 20 20 21 22 24 25 27 28 28 29 30 32 33 33 34 35 35 35 34 33 32 31 31 30 30 30 30 29 29 28 27 26 25 25 24 24 24 25 25 25 25 25 25 25 24 23 22 22 23 24 24 23 24 24 24
3 8 8 6 3 3 2 3 2 3 5 5 4 5 5 8 7 1 4 11 11 11 10 9 11 14 20 27 29 28 27 24 22 19 18 19 23 28 27 21 18 18 17 16 17 19 21 23 25 26 27 28 28 29 30 31 33 34 34 34 33 33 33 32 31 31 31 31 30 29 28 27 26 25 25 25 25 25 25 25 25 25 25 25 25 24 23 23 22 22 24 27 27 26 26 27 27
1 5 6 3 3 5 5 4 3 4 5 7 6 4 5 9 8 6 7 10 10 11 10 9 11 15 21 25 26 26 26 27 26 21 16 16 20 23 21 18 16 16 16 16 17 19 20 22 24 25 26 26 26 27 28 29 31 32 32 33 33 34 33 32 31 31 31 30 29 29 28 27 26 25 25 25 25 25 25 25 25 25 25 25 25 24 23 23 22 22 23 25 25 24 27 29 28
5 8 8 6 4 2 2 4 3 4 6 7 7 7 9 6 5 10 12 11 11 12 11 10 13 16 20 20 19 18 17 21 26 24 17 14 17 20 17 15 15 15 16 17 18 19 20 22 24 24 25 25 26 26 27 27 28 29 30 32 32 33 32 31 30 30 30 30 29 29 28 27 26 25 25 25 25 25 25 25 25 25 25 24 24 24 24 23 23 23 24 25 25 25 27 27 26
13 12 12 13 11 6 5 8 4 2 5 5 5 10 11 5 5 9 12 12 12 11 9 9 11 14 16 16 16 17 16 16 19 22 19 15 18 19 17 17 17 17 17 18 19 20 21 22 22 23 24 25 25 25 25 26 26 27 30 30 31 30 30 29 29 30 30 30 29 29 28 27 27 26 25 25 25 25 25 25 25 25 24 24 24 24 23 23 23 24 25 25 26 27 28 27 28
Wind_Direction
353 351 342 341 342 341 348 7 20 360 67 98 308 176 237 208 163 192 192 223 198 264 225 176 153 159 165 192 202 190 137 157 167 142 207 170 141 147 156 158 162 164 161 158 160 162 168 171 170 175 182 190 204 212 208 205 201 202 198 197 199 191 179 157 146 135 118 113 110 109 109 106 101 102 108 117 125 129 131 134 131 112 104 104 102 99 97 96 95 94 91 87 85 83 79 73 67
347 349 347 344 341 343 340 22 53 338 47 87 274 182 248 318 144 204 199 212 170 138 142 140 144 160 167 143 156 108 138 175 184 175 152 150 149 151 152 156 161 161 160 159 162 166 170 172 172 178 189 198 209 210 205 202 199 199 196 190 186 172 160 155 152 137 121 121 116 112 113 110 108 110 112 111 116 129 136 134 128 116 106 104 102 100 99 97 96 95 92 86 82 80 77 73 67
336 343 354 350 341 358 35 35 68 75 73 205 269 238 227 175 203 215 206 187 136 123 121 127 131 149 149 121 133 114 200 217 210 197 155 158 159 153 149 153 159 160 162 162 165 169 171 172 174 179 189 199 200 199 196 194 195 195 195 189 177 158 154 150 138 126 118 122 120 118 119 115 114 115 112 104 109 123 125 126 123 116 111 107 105 103 102 101 98 96 91 85 79 75 73 70 64
326 339 357 355 346 18 63 48 118 119 125 213 280 259 210 189 216 227 200 163 139 127 121 128 114 118 132 162 155 169 223 232 206 194 169 164 163 156 149 152 159 161 165 166 168 171 172 172 174 181 190 194 187 188 188 183 191 192 189 184 171 155 149 143 132 121 117 122 124 125 119 113 116 116 114 114 114 113 109 113 118 118 117 113 111 109 108 105 101 96 88 80 75 71 67 63 59
317 337 352 349 353 57 88 69 111 107 200 192 258 265 226 204 215 220 180 160 155 133 111 144 116 111 116 125 140 181 204 202 181 175 170 164 163 161 152 154 162 163 167 169 171 173 174 175 178 187 194 192 180 180 182 172 181 178 178 176 168 163 153 143 131 122 120 117 117 121 121 121 125 119 123 136 125 106 103 108 116 122 120 118 115 111 110 107 103 95 84 76 69 66 62 58 54
319 337 348 2 53 96 113 95 147 226 228 173 168 262 231 204 188 177 166 167 181 219 225 188 155 144 127 107 122 156 135 116 161 164 167 165 163 164 156 156 163 165 169 172 173 177 177 180 186 194 199 197 183 176 175 159 160 162 166 169 165 163 154 143 130 129 126 112 109 118 127 133 135 133 141 152 136 111 110 113 119 122 120 117 113 109 108 105 101 93 83 74 66 61 58 55 51
324 332 345 27 64 47 101 155 212 240 233 171 179 251 230 188 167 159 161 174 214 248 231 218 166 144 134 137 142 160 143 125 151 159 166 169 165 167 163 159 165 168 170 173 175 178 180 187 192 198 203 202 197 188 186 167 158 161 162 164 160 156 150 145 135 135 132 118 115 120 126 132 141 151 150 147 141 128 121 119 121 119 117 112 109 107 105 104 101 95 87 78 70 62 56 52 47
328 336 353 60 48 26 87 142 233 216 222 209 222 254 215 172 162 160 168 187 209 219 214 200 170 132 167 170 169 173 160 142 152 162 169 175 171 171 170 163 167 171 172 176 176 180 185 191 197 204 206 208 214 214 214 188 172 169 163 166 162 152 149 148 140 138 138 133 131 133 139 140 145 158 155 149 143 135 128 123 123 120 115 111 110 109 107 105 101 97 89 80 71 63 54 48 42
331 333 351 70 72 31 50 326 271 237 251 258 259 250 184 166 164 163 176 209 206 213 204 182 172 334 187 175 193 181 176 163 157 166 171 180 178 175 178 171 173 176 176 180 181 185 189 194 202 209 210 214 221 222 216 192 184 182 170 170 171 161 157 153 145 145 147 143 142 149 160 153 149 162 163 157 145 139 136 129 127 124 117 115 116 114 112 111 106 98 86 73 62 54 48 41 35
330 349 66 72 84 33 349 291 284 277 258 267 268 219 164 166 170 171 178 196 197 201 189 179 203 265 181 177 188 178 180 175 167 170 172 180 183 180 183 178 180 186 182 184 188 188 191 198 203 208 212 217 221 219 206 185 191 202 194 179 178 171 164 160 154 157 157 149 150 161 166 156 157 171 167 161 153 147 143 135 133 129 123 123 122 120 119 116 110 100 82 67 53 43 37 34 29
321 23 100 78 70 84 251 250 276 278 270 296 279 199 168 171 171 182 181 179 188 183 181 183 233 197 172 208 194 183 179 175 172 173 173 177 184 183 186 185 186 196 193 191 196 193 194 200 203 208 210 217 222 219 211 199 198 208 217 196 188 178 165 166 164 163 163 157 157 162 164 160 166 175 168 165 160 154 149 142 140 135 131 131 129 129 126 122 113 102 87 65 46 26 21 20 19
196 12 80 97 136 190 202 218 271 284 306 321 228 187 179 176 170 197 184 178 191 196 205 193 216 182 164 267 199 192 183 175 169 173 180 178 183 184 186 193 194 203 205 201 204 200 199 202 204 209 210 215 218 220 223 216 210 212 219 212 203 190 171 172 171 165 166 166 163 160 165 170 174 174 167 164 161 159 156 150 147 144 140 139 139 139 134 129 120 109 95 68 37 8 2 360 2
169 154 93 127 184 159 160 193 274 315 324 271 194 178 178 181 191 210 185 176 192 192 215 207 218 190 179 264 203 199 187 181 172 169 188 184 183 187 188 197 203 210 214 213 213 212 210 208 208 208 210 212 214 221 223 224 225 223 222 220 208 198 187 180 174 172 170 169 170 169 172 177 174 168 165 163 162 164 163 155 153 152 149 148 149 148 146 140 136 125 102 54 11 353 346 346 349
179 163 125 139 130 116 154 181 279 175 262 249 192 174 177 190 208 214 190 177 198 195 206 212 211 195 206 240 220 210 192 188 182 171 186 191 188 189 191 200 210 220 224 226 221 221 222 223 220 213 214 213 216 224 224 226 229 228 225 224 212 202 194 190 187 182 176 172 176 181 184 184 179 170 166 166 165 168 166 160 159 159 157 157 161 163 166 166 163 160 59 349 337 340 336 337 340
188 157 114 114 82 63 180 216 209 159 238 231 177 180 181 198 210 216 205 193 203 205 204 201 196 195 228 210 228 225 200 195 187 178 185 193 194 189 191 197 208 224 233 238 232 228 226 229 228 221 222 219 222 226 227 228 231 234 226 224 219 207 195 195 199 188 179 179 183 188 191 194 195 182 170 171 169 171 172 167 167 166 166 170 177 187 192 205 219 264 308 320 323 327 329 333 336
183 157 86 99 181 246 197 206 123 132 248 214 173 183 181 206 212 216 212 203 204 205 201 193 195 207 236 214 244 249 207 203 192 185 187 194 198 192 190 195 203 213 225 236 237 235 230 227 227 224 226 226 229 230 230 230 232 237 227 224 221 208 195 196 200 189 183 186 190 192 191 196 200 191 178 177 174 176 178 175 176 174 179 187 193 207 215 235 253 276 293 307 315 320 325 327 330
173 155 90 120 189 215 195 189 168 164 243 226 183 185 176 207 213 215 211 205 212 204 201 200 204 215 229 234 256 255 213 207 200 192 192 196 201 199 195 196 201 205 212 223 228 235 234 231 227 227 228 228 232 233 231 230 232 235 226 223 218 205 195 198 201 194 190 192 197 198 195 195 196 192 186 183 181 183 184 184 187 184 188 199 207 217 226 245 256 272 284 298 308 313 319 320 324
168 133 136 184 186 199 186 185 195 172 207 209 197 190 183 195 200 198 199 206 214 205 205 210 214 220 227 235 246 249 221 211 208 201 199 200 201 204 202 199 203 207 210 216 221 227 234 236 230 227 227 227 230 232 233 231 232 232 226 223 215 206 201 204 206 201 199 199 202 203 202 199 194 192 189 188 189 190 191 192 194 194 196 205 215 222 231 244 254 270 282 293 300 303 309 313 321
166 101 158 210 191 195 194 184 193 200 236 199 198 194 189 198 190 185 196 204 194 197 212 219 225 224 225 232 234 237 227 217 216 211 208 206 205 207 206 204 206 211 212 215 219 223 230 235 233 227 224 225 225 228 232 232 231 231 228 224 216 212 210 212 212 207 205 205 207 208 207 204 198 194 193 194 196 196 198 200 202 204 204 208 218 225 233 244 254 267 278 287 294 298 304 312 321
179 130 180 236 205 206 213 196 203 224 238 196 191 194 193 202 190 185 195 192 189 207 213 215 226 228 224 226 228 231 227 220 221 219 217 215 214 213 211 209 210 213 215 216 220 223 227 232 235 232 226 225 224 226 231 232 232 231 229 227 222 217 216 217 218 215 211 210 212 211 210 207 203 199 198 200 201 202 204 207 209 213 215 216 222 229 237 245 254 262 271 280 288 297 306 318 326
184 165 192 220 187 200 226 209 218 239 241 225 187 180 193 199 188 187 180 156 230 231 221 220 228 232 227 223 225 230 226 222 223 224 224 222 222 221 218 216 216 219 219 219 221 223 226 230 234 234 231 229 227 227 230 234 234 231 230 229 228 224 220 220 221 222 218 216 216 215 213 209 207 204 203 205 206 208 210 213 216 220 225 227 230 235 242 248 255 261 269 277 284 295 309 320 326
176 207 209 177 162 180 233 214 224 241 234 216 177 171 192 185 184 194 183 176 229 232 230 232 237 239 237 233 231 229 227 225 226 227 229 227 226 226 224 222 220 220 222 223 225 225 226 229 232 234 234 233 231 231 231 234 235 234 231 229 231 229 227 224 223 225 224 221 220 219 215 211 210 209 208 210 211 214 216 219 221 224 230 233 237 240 245 250 256 262 269 278 285 297 310 318 322
191 236 226 194 181 180 218 207 217 227 209 196 186 188 186 169 185 202 195 210 227 233 240 241 243 240 239 242 236 231 229 228 231 235 236 232 229 227 225 224 220 216 218 223 225 226 228 230 232 233 234 235 235 234 233 234 236 237 235 231 231 230 230 229 227 227 227 226 224 223 219 214 214 215 215 216 217 219 221 224 225 228 232 236 241 244 248 252 257 264 271 279 287 297 305 312 316
208 233 223 210 204 199 200 198 210 213 206 210 196 190 184 175 191 201 206 225 231 233 241 248 250 238 234 237 237 237 238 238 241 244 244 241 236 232 231 229 224 220 219 220 223 224 225 229 232 233 235 236 238 238 237 237 237 238 237 234 232 231 230 231 231 229 228 229 228 227 223 219 219 220 221 222 223 224 224 227 229 231 234 238 243 247 251 256 261 266 272 277 285 293 298 304 306
220 221 213 202 212 211 201 194 206 208 212 215 191 192 200 194 195 200 217 231 235 233 237 250 256 238 231 234 236 237 237 240 243 242 242 243 239 236 236 234 230 226 220 219 222 222 223 227 230 233 234 235 238 239 239 239 240 240 239 237 235 234 232 231 231 230 229 229 230 230 228 225 223 223 224 225 226 227 228 230 232 234 237 240 244 249 254 258 262 266 270 276 282 287 290 295 298
219 216 210 190 216 215 209 211 212 211 210 197 186 209 218 200 205 232 229 235 239 235 236 244 249 238 229 231 235 235 235 236 239 239 239 241 238 236 234 233 232 226 220 220 223 222 222 226 228 231 232 234 236 237 237 238 241 241 241 240 239 238 236 233 232 231 230 229 230 231 231 230 227 227 227 227 229 230 231 232 235 238 240 244 247 250 255 258 261 264 268 273 277 280 286 291 295
215 211 212 211 220 217 221 226 225 219 215 204 194 219 226 192 201 243 234 234 239 236 233 235 238 238 230 229 234 235 238 238 239 239 237 236 234 234 232 231 230 223 219 221 222 222 224 226 227 230 232 233 234 235 236 236 239 241 243 243 240 239 238 236 235 233 232 231 231 231 233 233 231 231 229 230 232 232 233 236 239 241 244 247 249 251 254 258 261 264 267 269 273 277 284 290 296
216 196 206 232 233 235 232 230 224 211 219 218 203 230 241 172 199 233 230 231 236 234 232 232 233 236 232 229 232 235 239 238 238 238 236 234 233 234 231 230 228 222 220 220 220 223 226 226 226 229 232 233 234 234 235 236 238 241 243 243 241 240 239 238 237 236 235 233 233 233 233 234 234 235 234 234 235 235 237 240 242 245 247 249 252 252 252 257 260 262 266 269 274 279 285 293 298
204 168 179 253 260 276 237 227 218 198 216 210 183 281 264 208 226 227 227 233 237 236 233 234 235 237 235 232 231 234 240 238 235 236 236 236 236 237 235 232 230 226 224 222 223 225 227 228 228 230 232 234 235 235 236 236 238 240 243 244 243 241 239 239 238 238 238 237 236 236 236 236 236 237 238 238 238 239 241 242 245 248 250 251 253 253 251 255 258 261 266 270 275 280 287 294 297
178 152 149 245 272 285 232 212 193 188 211 178 159 245 248 229 238 228 230 237 237 239 238 237 238 239 237 235 235 235 237 237 237 238 237 236 237 239 239 237 234 232 229 227 226 226 227 229 230 232 233 235 237 237 238 237 238 240 242 245 244 243 241 240 240 239 239 239 239 239 239 239 239 239 239 240 241 242 243 245 247 249 252 253 254 255 254 255 258 261 264 269 274 279 287 292 295
158 146 191 177 191 267 250 187 161 175 225 177 160 231 248 240 245 235 235 237 235 238 240 242 241 240 239 237 238 239 238 238 241 242 239 239 239 240 241 239 237 236 233 230 229 228 229 231 231 233 234 236 238 238 239 239 240 241 243 244 245 244 243 242 240 240 239 239 240 241 241 241 241 241 241 242 243 244 245 247 249 251 253 254 256 257 257 256 257 260 263 267 272 277 283 288 290
151 183 214 175 194 259 296 190 171 182 217 180 163 224 257 258 250 241 236 231 230 234 239 242 241 240 239 238 239 240 240 240 241 241 240 240 240 241 243 241 240 239 237 235 233 232 232 232 233 234 235 237 238 239 240 241 242 242 243 244 244 245 245 244 242 241 240 238 239 240 241 242 242 243 242 242 244 245 246 248 250 252 254 256 258 257 257 257 257 259 263 267 271 274 278 282 285
225 204 199 167 187 218 290 246 197 198 164 181 203 230 255 270 242 230 227 223 222 228 237 239 239 240 239 239 239 240 241 240 239 240 239 239 240 241 243 243 242 241 240 239 237 236 234 234 235 235 236 237 238 240 241 241 242 242 243 244 244 245 245 245 244 243 241 238 238 239 240 242 243 243 244 244 245 245 247 249 251 252 254 257 259 258 256 257 258 259 262 265 269 272 275 279 283
207 198 203 193 184 190 222 282 224 208 175 200 221 236 242 243 204 195 203 219 219 225 236 240 240 242 242 242 241 242 242 241 241 242 242 242 242 241 242 244 244 243 242 241 241 240 238 238 238 237 238 238 239 240 241 242 243 243 244 244 244 244 245 244 244 243 241 238 238 238 239 241 243 244 245 246 246 247 247 249 250 251 253 255 257 257 256 256 258 260 262 265 268 272 276 280 284
192 189 194 189 175 197 201 226 210 189 195 215 202 232 246 242 230 229 233 220 217 226 235 242 244 244 246 246 245 245 245 245 246 246 247 247 246 243 242 242 243 244 243 242 242 241 241 240 239 240 239 239 239 240 241 241 242 242 242 243 242 242 242 241 241 242 241 240 239 240 240 241 243 245 247 247 248 248 248 249 250 251 253 255 257 256 255 255 257 261 264 266 269 274 278 280 283
189 182 173 163 181 221 213 235 225 173 180 223 202 223 245 241 240 249 251 244 235 242 242 243 247 247 247 247 248 249 249 249 250 250 251 252 251 248 244 243 244 245 244 243 243 242 241 240 239 239 238 239 239 239 239 239 238 239 239 240 240 240 240 240 240 241 241 242 242 242 243 244 245 247 247 248 249 250 250 251 252 252 253 255 256 255 254 255 258 261 264 267 269 271 274 276 279
160 156 169 174 190 234 228 244 267 180 177 228 216 226 247 244 239 247 250 250 252 255 252 246 246 247 247 245 246 247 249 251 252 252 251 253 253 252 248 245 245 245 244 243 242 242 241 240 240 239 238 238 238 238 238 237 237 237 238 239 240 241 241 241 241 242 243 243 243 243 244 245 247 248 249 249 249 251 251 252 252 252 253 255 256 256 256 256 258 260 262 264 266 268 271 273 276
144 160 180 185 197 226 217 210 279 184 182 248 229 234 255 252 246 250 247 239 247 249 249 246 246 248 248 247 246 246 249 252 252 251 249 249 250 249 249 246 244 244 242 241 242 243 243 242 242 241 240 239 238 239 239 239 239 240 242 243 244 246 246 246 246 246 246 247 246 245 245 245 247 248 249 250 250 252 253 253 253 254 255 256 258 258 258 257 257 259 261 263 266 268 271 274 275
153 164 170 190 193 200 253 222 351 164 184 260 242 233 257 256 246 251 241 226 244 248 246 249 249 249 249 248 248 248 249 251 252 253 251 249 247 245 247 246 245 244 242 242 242 245 246 245 245 243 242 241 240 240 241 242 242 243 245 247 248 250 251 252 252 251 250 250 249 248 247 247 247 248 249 251 252 253 255 256 257 257 257 257 259 260 260 259 259 260 261 264 267 269 271 273 273
176 165 170 190 162 160 235 243 82 195 190 235 259 263 267 266 258 256 241 233 246 250 247 252 252 249 250 252 253 252 252 253 253 254 253 252 249 245 244 245 245 245 244 242 242 244 247 247 247 245 244 243 242 242 242 244 245 246 248 250 251 252 253 253 251 250 248 248 249 248 248 248 248 249 250 252 254 256 258 259 260 260 260 259 259 260 260 261 261 262 263 264 267 268 271 273 275
205 193 195 183 146 174 201 150 119 313 309 118 354 301 273 257 248 254 243 232 244 249 243 250 252 251 252 252 254 255 254 255 254 253 251 251 250 247 245 245 246 247 246 245 245 248 250 249 248 248 247 246 245 245 244 245 246 247 247 248 249 249 249 248 247 246 245 246 248 248 249 249 249 250 250 252 253 256 258 260 261 262 262 261 260 260 261 261 262 262 263 264 265 267 270 274 275
217 217 205 174 150 163 145 126 121 53 279 236 120 272 271 261 237 244 243 215 235 241 231 241 246 248 248 247 250 253 253 253 250 249 248 248 248 247 246 246 246 247 246 247 249 251 252 251 250 250 250 249 248 248 247 247 247 247 247 247 247 247 248 248 249 250 250 252 254 255 256 256 255 255 254 254 254 256 257 258 260 261 261 262 261 262 262 262 262 262 263 264 266 268 271 273 274
218 198 170 156 149 150 141 142 146 184 252 271 160 227 268 292 246 239 233 215 238 237 226 240 243 243 243 243 248 251 251 249 246 245 245 246 247 246 245 244 244 245 245 246 248 251 253 253 251 250 250 250 250 250 250 249 248 247 248 248 249 250 251 252 254 256 258 260 262 262 262 262 262 261 260 259 258 258 258 258 259 260 261 262 263 263 264 264 265 265 265 265 266 268 270 271 272
212 153 134 140 143 151 155 153 180 219 263 321 181 206 272 275 254 233 195 214 250 250 243 246 242 240 242 243 247 249 249 247 245 245 245 246 248 247 246 244 243 244 245 246 247 248 250 251 251 250 249 249 250 251 251 250 250 250 250 251 251 251 253 256 257 259 260 262 262 261 262 262 262 262 261 260 260 260 261 261 261 261 262 263 264 265 266 267 268 268 268 267 268 269 269 270 272
237 135 128 129 126 136 141 143 184 269 5 245 213 145 257 261 257 202 157 212 248 250 243 242 236 237 242 245 248 249 250 250 249 249 248 248 250 250 250 249 248 248 248 248 248 248 248 248 249 249 249 249 250 251 252 252 252 252 252 253 253 253 255 257 258 259 259 259 259 260 260 260 260 259 259 259 259 261 262 264 264 264 265 265 265 266 267 267 267 268 268 268 269 269 268 270 271
163 118 104 96 95 95 100 122 144 76 282 235 207 169 228 265 253 224 166 215 236 244 242 238 231 235 241 245 248 251 252 253 252 251 250 250 251 252 253 253 253 253 252 252 252 251 249 247 246 246 246 248 249 250 251 252 252 252 252 252 253 254 255 256 258 258 257 257 258 258 259 259 259 259 259 260 261 262 264 267 268 269 270 269 268 267 266 266 267 267 268 268 268 267 268 268 268
124 111 92 82 62 66 75 59 97 100 258 233 194 180 205 269 250 215 205 204 219 236 248 245 231 232 239 244 248 251 252 252 252 251 250 251 252 253 253 255 255 255 253 251 251 250 249 248 246 246 246 246 247 248 249 250 251 252 252 251 251 252 254 255 256 257 257 256 256 257 259 260 262 262 263 264 264 265 267 270 271 272 273 271 269 269 268 268 268 268 268 267 266 266 266 266 267
126 103 127 124 60 47 58 28 89 209 248 229 183 171 186 243 243 201 222 218 217 228 235 239 228 226 236 241 247 250 250 251 251 253 255 256 256 255 255 256 256 255 253 249 247 246 246 247 246 246 245 245 245 246 246 247 249 251 252 251 251 252 254 254 254 256 257 257 257 259 261 262 263 265 266 267 267 270 273 274 274 273 272 270 270 269 269 269 269 268 267 265 264 264 264 264 266
128 95 144 154 149 126 158 176 179 226 248 300 168 155 188 241 247 255 256 243 229 229 231 234 226 228 238 242 244 246 247 249 250 251 254 256 257 256 254 255 256 256 254 250 246 244 244 244 244 244 244 243 244 244 245 245 247 249 251 251 252 253 254 254 254 255 257 258 259 260 262 263 265 267 268 270 273 276 277 275 273 271 270 269 268 267 267 266 265 262 260 259 259 261 265 268 271
165 153 161 174 159 166 197 192 213 236 239 348 150 153 224 261 270 251 245 241 233 232 236 237 231 234 242 244 242 242 242 245 248 247 248 252 254 253 252 252 252 253 253 250 247 244 242 242 242 243 242 242 242 243 244 244 245 248 250 251 253 254 254 254 254 254 256 259 260 262 264 265 267 269 271 274 278 279 276 274 272 269 267 266 266 266 265 263 262 259 258 260 263 268 273 276 276
184 165 155 189 186 188 202 192 222 238 215 331 208 167 208 229 274 265 248 255 252 241 239 239 238 240 245 248 246 244 244 246 248 248 248 251 252 251 254 256 253 249 247 246 244 242 241 241 241 242 240 239 239 241 242 243 244 246 249 251 252 253 254 255 254 254 257 260 261 262 264 265 267 270 273 277 278 277 275 273 270 267 266 266 266 266 266 265 264 263 263 265 268 271 271 270 269
189 138 152 212 202 152 120 183 217 144 136 270 213 227 232 209 278 287 269 275 272 254 248 245 245 247 250 256 255 254 255 258 259 255 251 250 247 246 254 262 258 249 243 240 238 237 236 235 237 239 239 238 238 239 241 242 244 246 248 250 251 252 254 255 254 254 255 258 260 262 263 265 268 270 273 275 275 275 274 271 268 267 266 266 266 266 267 266 264 264 263 261 261 260 260 261 261
170 174 185 205 130 111 115 233 350 60 237 245 174 243 282 316 282 266 241 251 270 263 257 248 246 248 251 255 257 258 260 261 262 261 256 250 243 240 246 259 260 248 240 237 234 231 229 229 232 236 237 236 236 237 240 242 244 246 247 249 250 251 253 254 253 253 254 257 260 262 264 266 268 271 272 273 273 272 270 268 266 265 265 265 265 265 265 265 265 265 264 264 264 264 265 265 264
156 188 180 125 70 79 118 219 17 55 252 266 190 235 259 283 268 249 218 232 245 251 252 244 247 248 245 248 252 255 255 256 261 263 257 250 240 234 237 250 256 244 237 234 229 226 224 225 229 233 235 235 236 237 239 242 244 246 247 248 250 251 251 253 253 253 255 257 259 262 264 267 269 272 272 272 271 269 267 266 265 264 265 264 264 264 263 262 261 262 267 270 271 272 272 270 267
170 175 163 136 167 215 167 186 202 194 246 272 234 233 239 221 231 217 211 229 232 241 244 239 242 239 239 247 253 256 254 253 258 260 255 251 239 228 230 244 248 237 230 227 221 220 221 224 228 231 233 235 236 239 240 243 245 246 248 249 250 250 251 252 253 253 254 255 258 262 266 269 270 271 270 269 268 267 265 264 263 264 265 265 265 264 264 262 258 257 262 265 265 266 266 266 265
35 133 149 150 190 198 188 187 186 181 226 260 247 227 241 227 198 164 213 228 224 235 244 243 243 238 241 250 257 261 259 252 251 253 260 257 235 220 225 236 235 227 227 224 221 222 224 226 229 231 233 233 235 238 239 241 244 246 247 248 248 248 249 250 251 252 252 252 257 263 266 268 268 267 266 265 264 263 261 261 262 263 264 264 264 262 261 262 261 260 261 262 263 264 264 264 263
164 164 176 189 191 169 197 205 176 164 206 241 253 248 250 242 175 177 206 219 214 216 226 238 247 248 248 252 256 261 266 260 250 248 258 252 220 210 217 225 223 224 226 222 221 225 228 230 232 232 233 233 234 236 239 240 242 243 245 245 245 246 247 248 249 249 249 251 257 262 264 265 265 263 262 261 260 259 259 261 261 261 261 261 261 259 257 256 257 259 261 263 263 262 262 263 265
178 187 186 189 189 169 191 211 195 175 211 202 230 259 260 233 182 190 201 216 221 212 215 235 248 254 255 259 262 263 270 272 253 243 249 236 207 204 212 218 222 228 229 225 227 233 238 240 240 237 236 235 235 237 241 243 243 242 242 242 243 244 245 246 246 247 249 252 256 258 260 260 260 259 258 256 256 257 258 259 258 258 258 258 258 259 258 256 254 253 256 259 260 260 256 255 261